Sheridan, WY

4:43 PM MDT on June 23, 2017 (GMT -0600)
Sheridan County

Weather History for KSHR - January, 2014

Change the Weather History Date:

Thursday, January 30, 2014

  Actual Average Record
Temperature  
Mean Temperature 17 °F 24 °F  
Max Temperature 32 °F 37 °F 64 °F (1989)
Min Temperature 1 °F 12 °F -29 °F (1922)
Degree Days  
Heating Degree Days 48 41  
Month to date heating degree days 1131 1239  
Since 1 July heating degree days 4351 4422  
Cooling Degree Days 0 0  
Month to date cooling degree days 0 0  
Year to date cooling degree days 0 0  
Moisture  
Dew Point 11 °F    
Average Humidity 79    
Maximum Humidity 88    
Minimum Humidity 70    
Precipitation  
Precipitation 0.02 in 0.02 in 0.20 in (1988)
Month to date precipitation 0.62 0.54  
Year to date precipitation 0.62 0.54  
Sea Level Pressure  
Sea Level Pressure 29.85 in    
Wind  
Wind Speed 11 mph (NW)    
Max Wind Speed 33 mph    
Max Gust Speed 35 mph    
Visibility 5 miles    
Events Snow    
T = Trace of Precipitation, MM = Missing Value Source: NWS Daily Summary

Daily Weather History Graph

Daily Weather History Graph

Search for Another Location

Airport or City:

Trip Planner

Search our weather history database for the weather conditions in past years. The results will help you decide how hot, cold, wet, or windy it might be!

Date:

Astronomy

Jan. 30, 2014 Rise Set
Actual Time 7:29 AM MST 5:13 PM MST
Civil Twilight 6:58 AM MST 5:45 PM MST
Nautical Twilight 6:22 AM MST 6:20 PM MST
Astronomical Twilight 5:48 AM MST 6:54 PM MST
Moon 6:55 AM MST (1/30) 5:31 PM MST (1/30)
Length of Visible Light 10h 47m
Length of Day
9h 44m
Waning Crescent, 0% of the Moon is Illuminated
Jan 30
Waning Crescent
Jan 30
New
Feb 6
First Quarter
Feb 14
Full
Feb 22
Last Quarter

Hourly Weather History & Observations

Time (MST) Temp. Windchill Dew Point Humidity Pressure Visibility Wind Dir Wind Speed Gust Speed Precip Events Conditions
12:12 AM 32.0 °F 25.6 °F 28.0 °F 85% 29.50 in 10.0 mi North 6.9 mph - N/A   Overcast
12:53 AM 30.9 °F 21.2 °F 27.0 °F 85% 29.60 in 10.0 mi NNE 12.7 mph - N/A   Overcast
1:07 AM 28.0 °F 19.3 °F 26.1 °F 92% 29.55 in 10.0 mi NNE 9.2 mph - N/A   Overcast
1:53 AM 27.0 °F 15.2 °F 23.0 °F 85% 29.67 in 8.0 mi WNW 15.0 mph - N/A   Overcast
2:25 AM 26.1 °F 14.5 °F 21.0 °F 81% 29.61 in 10.0 mi NW 13.8 mph - N/A   Overcast
2:53 AM 25.0 °F 13.6 °F 19.9 °F 81% 29.71 in 10.0 mi NNW 12.7 mph - N/A   Overcast
3:24 AM 24.1 °F 8.7 °F 19.9 °F 84% 29.63 in 2.5 mi NW 23.0 mph - 0.00 in Snow Light Snow
3:27 AM 24.1 °F 9.0 °F 19.9 °F 84% 29.64 in 3.0 mi NW 21.9 mph - 0.00 in Snow Light Snow
3:35 AM 23.0 °F 7.6 °F 19.0 °F 85% 29.63 in 3.0 mi NW 21.9 mph - 0.00 in Snow Light Snow
3:53 AM 23.0 °F 7.6 °F 18.0 °F 81% 29.75 in 8.0 mi NW 21.9 mph - 0.00 in Snow Light Snow
4:17 AM 21.9 °F 8.2 °F 18.0 °F 85% 29.65 in 4.0 mi NW 16.1 mph 24.2 mph 0.00 in Snow Light Snow
4:24 AM 21.0 °F 7.6 °F 17.1 °F 85% 29.66 in 2.5 mi WNW 15.0 mph - 0.00 in Snow Light Snow
4:41 AM 21.0 °F 7.6 °F 17.1 °F 85% 29.67 in 5.0 mi NW 15.0 mph - 0.00 in Snow Light Snow
4:53 AM 19.9 °F 5.7 °F 16.0 °F 85% 29.78 in 6.0 mi NW 16.1 mph - 0.00 in Snow Light Snow
5:41 AM 19.0 °F 6.8 °F 15.1 °F 85% 29.71 in 10.0 mi NNW 11.5 mph - 0.00 in   Overcast
5:53 AM 19.0 °F 6.1 °F 14.0 °F 81% 29.83 in 10.0 mi NW 12.7 mph - 0.00 in   Overcast
6:47 AM 17.6 °F 2.7 °F 12.2 °F 79% 29.74 in 2.5 mi NW 16.1 mph - 0.00 in Snow Light Snow
6:48 AM 18.0 °F 3.1 °F 12.9 °F 81% 29.86 in 2.5 mi NW 16.1 mph - 0.00 in Snow Light Snow
7:33 AM 17.1 °F 2.0 °F 12.0 °F 81% 29.76 in 1.5 mi NW 16.1 mph - 0.01 in Snow Light Snow
7:53 AM 16.0 °F 2.3 °F 10.9 °F 81% 29.90 in 2.0 mi WNW 12.7 mph - 0.01 in Snow Light Snow
8:03 AM 16.0 °F 2.3 °F 10.9 °F 81% 29.78 in 1.5 mi WNW 12.7 mph - 0.00 in Snow Light Snow
8:31 AM 16.0 °F 0.6 °F 10.9 °F 81% 29.80 in 2.5 mi WNW 16.1 mph - 0.00 in Snow Light Snow
8:53 AM 15.1 °F -0.6 °F 10.0 °F 80% 29.93 in 2.0 mi WNW 16.1 mph - 0.00 in Snow Light Snow
9:30 AM 15.1 °F -1.6 °F 10.0 °F 80% 29.83 in 1.8 mi NW 18.4 mph - 0.00 in Snow Light Snow
9:53 AM 15.1 °F -0.1 °F 9.0 °F 77% 29.96 in 2.5 mi NW 15.0 mph - 0.00 in Snow Light Snow
10:10 AM 15.1 °F -1.6 °F 10.0 °F 80% 29.85 in 3.0 mi NW 18.4 mph - 0.00 in Snow Light Snow
10:15 AM 15.1 °F -1.1 °F 10.0 °F 80% 29.85 in 2.5 mi NW 17.3 mph - 0.00 in Snow Light Snow
10:25 AM 15.1 °F -0.1 °F 10.0 °F 80% 29.86 in 1.0 mi NW 15.0 mph - 0.00 in Snow Light Snow
10:44 AM 15.1 °F -0.6 °F 9.0 °F 77% 29.86 in 2.0 mi NW 16.1 mph - 0.00 in Snow Light Snow
10:53 AM 15.1 °F -0.1 °F 9.0 °F 77% 30.00 in 2.5 mi NW 15.0 mph - 0.00 in Snow Light Snow
11:16 AM 15.1 °F 1.1 °F 9.0 °F 77% 29.87 in 1.2 mi NW 12.7 mph - 0.00 in Snow Light Snow
11:34 AM 15.1 °F 1.8 °F 10.0 °F 80% 29.87 in 2.5 mi NW 11.5 mph - 0.01 in Snow Light Snow
11:48 AM 15.8 °F 2.7 °F 10.4 °F 79% 29.87 in 4.0 mi NNW 11.5 mph - 0.01 in Snow Light Snow
11:53 AM 16.0 °F 1.7 °F 9.0 °F 74% 30.00 in 3.0 mi NNW 13.8 mph - 0.01 in Snow Light Snow
11:57 AM 16.0 °F 2.3 °F 9.0 °F 74% 29.86 in 1.8 mi NNW 12.7 mph - 0.00 in Snow Light Snow
12:08 PM 16.0 °F 2.3 °F 9.0 °F 74% 29.86 in 3.0 mi NW 12.7 mph - 0.00 in Snow Light Snow
12:26 PM 16.0 °F 2.9 °F 9.0 °F 74% 29.85 in 5.0 mi NNW 11.5 mph - 0.00 in Snow Light Snow
12:37 PM 16.0 °F 2.3 °F 9.0 °F 74% 29.85 in 1.8 mi NNW 12.7 mph - 0.00 in Snow Light Snow
12:46 PM 15.1 °F 2.5 °F 9.0 °F 77% 29.85 in 2.5 mi NNW 10.4 mph - 0.00 in Snow Light Snow
12:53 PM 15.1 °F 1.8 °F 9.0 °F 77% 29.99 in 3.0 mi NW 11.5 mph - 0.00 in Snow Light Snow
1:12 PM 15.1 °F 1.8 °F 8.1 °F 74% 29.84 in 2.0 mi NNW 11.5 mph - 0.00 in Snow Light Snow
1:48 PM 15.8 °F 3.4 °F 8.6 °F 73% 29.84 in 1.8 mi NNW 10.4 mph - 0.00 in Snow Light Snow
1:53 PM 14.0 °F 1.2 °F 8.1 °F 77% 29.99 in 2.0 mi NW 10.4 mph - 0.00 in Snow Light Snow
2:03 PM 15.1 °F 2.5 °F 8.1 °F 74% 29.84 in 6.0 mi NW 10.4 mph - 0.00 in Snow Light Snow
2:27 PM 15.1 °F 3.3 °F 7.0 °F 70% 29.85 in 10.0 mi NW 9.2 mph - 0.00 in   Scattered Clouds
2:53 PM 15.1 °F -5.9 °F 7.0 °F 70% 30.01 in 10.0 mi East 32.2 mph - 0.00 in   Clear
3:53 PM 12.9 °F -0.2 °F 5.0 °F 71% 30.04 in 10.0 mi WNW 10.4 mph - N/A   Mostly Cloudy
4:27 PM 12.9 °F -0.2 °F 6.1 °F 74% 29.87 in 6.0 mi WNW 10.4 mph - N/A   Haze
4:37 PM 12.9 °F 0.7 °F 6.1 °F 74% 29.87 in 7.0 mi WNW 9.2 mph - N/A   Overcast
4:53 PM 12.0 °F 0.5 °F 6.1 °F 77% 30.05 in 5.0 mi WNW 8.1 mph - 0.00 in Snow Light Snow
5:30 PM 12.0 °F 0.5 °F 7.0 °F 80% 29.89 in 6.0 mi WNW 8.1 mph - 0.00 in Snow Light Snow
5:40 PM 12.0 °F -1.3 °F 6.1 °F 77% 29.88 in 9.0 mi WNW 10.4 mph - 0.00 in   Overcast
5:53 PM 10.9 °F -1.8 °F 6.1 °F 81% 30.06 in 10.0 mi WNW 9.2 mph - 0.00 in   Overcast
6:53 PM 10.0 °F 0.4 °F 5.0 °F 80% 30.08 in 8.0 mi WNW 5.8 mph - 0.00 in Snow Light Snow
7:01 PM 10.0 °F 3.6 °F 5.0 °F 80% 29.88 in 5.0 mi WNW 3.5 mph - 0.00 in Snow Light Snow
7:15 PM 9.0 °F - 5.0 °F 84% 29.88 in 8.0 mi Calm Calm - 0.00 in   Overcast
7:53 PM 10.0 °F - 5.0 °F 80% 30.09 in 10.0 mi Calm Calm - 0.00 in   Overcast
8:53 PM 9.0 °F 2.4 °F 3.9 °F 80% 30.08 in 10.0 mi SSE 3.5 mph - N/A   Overcast
9:53 PM 9.0 °F - 3.9 °F 80% 30.07 in 10.0 mi Calm Calm - N/A   Overcast
10:53 PM 7.0 °F - 3.0 °F 84% 30.06 in 10.0 mi Calm Calm - N/A   Partly Cloudy
11:53 PM 1.9 °F - -2.0 °F 83% 30.06 in 10.0 mi Calm Calm - N/A   Clear